Weather History for Dumas, TX

Change the Weather History Date:

Friday, May 23, 2014

  Actual Average (KBGD) Record (KBGD)
Temperature  
Mean Temperature 62 °F 70 °F  
Max Temperature 70 °F 83 °F 103 °F (2000)
Min Temperature 55 °F 58 °F 44 °F (1967)
Degree Days  
Heating Degree Days 3 1  
Month to date heating degree days 56  
Since 1 July heating degree days 3759  
Cooling Degree Days 0 6  
Month to date cooling degree days 96  
Year to date cooling degree days 140  
Growing Degree Days 12 (Base 50)    
Moisture  
Dew Point 56 °F    
Average Humidity 86    
Maximum Humidity 97    
Minimum Humidity 62    
Precipitation  
Precipitation 0.33 in 0.12 in 3.36 in (2002)
Month to date precipitation 1.86  
Year to date precipitation 6.02  
Snow  
Snow 0.00 in - T in (1954)
Month to date snowfall  
Since 1 July snowfall  
Snow Depth -    
Sea Level Pressure  
Sea Level Pressure 30.12 in    
Wind  
Wind Speed 3 mph (ESE)    
Max Wind Speed 18 mph    
Max Gust Speed -    
Visibility 9 miles    
Events Rain    
T = Trace of Precipitation, MM = Missing Value Source: NWS Daily Summary

Daily Weather History Graph

Daily Weather History Graph

Search for Another Location

Airport:

Trip Planner

Search our weather history database for the weather conditions in past years. The results will help you decide how hot, cold, wet, or windy it might be!

Date:

Astronomy

May. 23, 2014 Rise Set
Actual Time 6:37 AM CDT 8:52 PM CDT
Civil Twilight 6:08 AM CDT 9:22 PM CDT
Nautical Twilight 5:32 AM CDT 9:57 PM CDT
Astronomical Twilight 4:53 AM CDT 10:36 PM CDT
Moon 3:22 AM CDT (5/23) 3:57 PM CDT (5/23)
Length of Visible Light 15h 13m
Length of Day
14h 15m
Waning Crescent, 27% of the Moon is Illuminated
May 23
Waning Crescent
May 28
New
Jun 5
First Quarter
Jun 12
Full
Jun 19
Last Quarter

Hourly Weather History & Observations

Time (CDT) Temp. Dew Point Humidity Pressure Visibility Wind Dir Wind Speed Gust Speed Precip Events Conditions
12:15 AM 57.2 °F 53.8 °F 88% 30.17 in 10.0 mi NNE 8.1 mph - N/A   Clear
12:35 AM 57.2 °F 54.1 °F 89% 30.17 in 10.0 mi NNE 3.5 mph - N/A   Clear
12:55 AM 57.0 °F 54.0 °F 89% 30.17 in 10.0 mi North 5.8 mph - N/A   Clear
1:15 AM 56.5 °F 54.1 °F 92% 30.16 in 10.0 mi Calm Calm - N/A   Clear
1:35 AM 56.7 °F 54.1 °F 91% 30.17 in 10.0 mi Calm Calm - N/A   Clear
1:55 AM 56.8 °F 54.0 °F 90% 30.16 in 10.0 mi Calm Calm - N/A   Clear
2:15 AM 55.9 °F 54.0 °F 93% 30.14 in 10.0 mi Calm Calm - N/A   Clear
2:35 AM 56.3 °F 54.3 °F 93% 30.15 in 10.0 mi Calm Calm - N/A   Scattered Clouds
2:55 AM 55.9 °F 54.0 °F 93% 30.15 in 10.0 mi Calm Calm - N/A   Scattered Clouds
3:15 AM 56.3 °F 54.1 °F 92% 30.14 in 10.0 mi Calm Calm - N/A   Scattered Clouds
3:35 AM 55.9 °F 54.1 °F 94% 30.13 in 10.0 mi Calm Calm - N/A   Scattered Clouds
3:55 AM 56.1 °F 54.3 °F 94% 30.14 in 10.0 mi Calm Calm - N/A   Scattered Clouds
4:15 AM 55.9 °F 54.5 °F 95% 30.13 in 10.0 mi Calm Calm - 0.01 in Rain Light Rain
4:35 AM 55.8 °F 54.5 °F 96% 30.12 in 10.0 mi Calm Calm - 0.01 in Rain Light Rain
4:55 AM 55.8 °F 54.7 °F 96% 30.12 in 7.0 mi Calm Calm - 0.01 in   Light Drizzle
5:15 AM 55.8 °F 54.5 °F 96% 30.12 in 7.0 mi Calm Calm - N/A   Scattered Clouds
5:35 AM 55.9 °F 54.7 °F 96% 30.12 in 7.0 mi Calm Calm - N/A   Mostly Cloudy
5:55 AM 56.3 °F 55.0 °F 96% 30.12 in 7.0 mi Calm Calm - N/A   Overcast
6:15 AM 56.7 °F 55.4 °F 96% 30.13 in 7.0 mi Calm Calm - N/A Rain Light Rain
6:35 AM 56.7 °F 55.4 °F 96% 30.13 in 7.0 mi Calm Calm - N/A   Light Drizzle
6:55 AM 57.2 °F 55.4 °F 94% 30.13 in 7.0 mi Calm Calm - 0.01 in   Overcast
7:15 AM 56.8 °F 55.6 °F 96% 30.15 in 4.0 mi Calm Calm - N/A   Overcast
7:35 AM 56.7 °F 55.4 °F 96% 30.15 in 4.0 mi Calm Calm - N/A   Light Drizzle
7:55 AM 57.2 °F 55.8 °F 95% 30.15 in 4.0 mi Calm Calm - N/A   Light Drizzle
8:15 AM 57.4 °F 55.9 °F 95% 30.16 in 5.0 mi Calm Calm - N/A   Mostly Cloudy
8:35 AM 57.4 °F 55.8 °F 94% 30.18 in 5.0 mi Calm Calm - N/A   Mostly Cloudy
8:55 AM 57.4 °F 55.8 °F 94% 30.18 in 5.0 mi Calm Calm - N/A Rain Light Rain
9:15 AM 57.4 °F 55.9 °F 95% 30.19 in 4.0 mi Calm Calm - 0.01 in Rain Rain
9:35 AM 57.2 °F 55.9 °F 96% 30.19 in 0.8 mi Calm Calm - 0.20 in Rain Heavy Rain
9:55 AM 57.2 °F 56.5 °F 97% 30.19 in 2.5 mi Calm Calm - 0.29 in Rain Rain
10:15 AM 58.1 °F 57.0 °F 96% 30.19 in 4.0 mi Calm Calm - N/A Rain Light Rain
10:35 AM 58.3 °F 57.2 °F 96% 30.18 in 5.0 mi Calm Calm - 0.01 in   Overcast
10:55 AM 58.8 °F 57.7 °F 96% 30.17 in 7.0 mi Calm Calm - 0.01 in Rain Light Rain
11:35 AM 59.9 °F 58.6 °F 96% 30.16 in 5.0 mi East 11.5 mph - 0.01 in   Light Drizzle
11:55 AM 60.6 °F 59.4 °F 96% 30.14 in 7.0 mi East 18.4 mph - 0.01 in   Overcast
12:15 PM 61.2 °F 59.5 °F 94% 30.13 in 10.0 mi East 16.1 mph - N/A   Mostly Cloudy
12:35 PM 61.5 °F 58.8 °F 91% 30.14 in 10.0 mi East 6.9 mph - N/A   Mostly Cloudy
12:55 PM 62.2 °F 59.4 °F 90% 30.14 in 10.0 mi Calm Calm - N/A   Overcast
1:15 PM 63.5 °F 59.5 °F 87% 30.14 in 10.0 mi ESE 11.5 mph - N/A   Mostly Cloudy
1:55 PM 62.8 °F 58.1 °F 85% 30.13 in 10.0 mi Calm Calm - N/A   Mostly Cloudy
2:15 PM 62.8 °F 58.6 °F 86% 30.12 in 10.0 mi Calm Calm - N/A   Overcast
2:35 PM 64.2 °F 57.7 °F 79% 30.12 in 10.0 mi ESE 3.5 mph - N/A   Overcast
2:55 PM 65.1 °F 57.0 °F 75% 30.12 in 10.0 mi SE 4.6 mph - N/A   Mostly Cloudy
3:15 PM 65.5 °F 57.6 °F 76% 30.11 in 10.0 mi SE 8.1 mph - N/A   Mostly Cloudy
3:35 PM 65.8 °F 56.1 °F 71% 30.10 in 10.0 mi Calm Calm - N/A   Mostly Cloudy
3:55 PM 66.7 °F 56.3 °F 69% 30.09 in 10.0 mi Calm Calm - N/A   Overcast
4:15 PM 67.8 °F 56.3 °F 67% 30.08 in 10.0 mi Calm Calm - N/A   Mostly Cloudy
4:35 PM 68.7 °F 55.2 °F 62% 30.07 in 10.0 mi Calm Calm - N/A   Scattered Clouds
4:55 PM 68.5 °F 56.1 °F 64% 30.07 in 10.0 mi ESE 3.5 mph - N/A   Mostly Cloudy
5:15 PM 69.8 °F 56.3 °F 62% 30.06 in 10.0 mi Calm Calm - N/A   Overcast
5:35 PM 68.0 °F 56.7 °F 67% 30.06 in 10.0 mi Calm Calm - N/A   Mostly Cloudy
5:55 PM 68.2 °F 55.6 °F 64% 30.06 in 10.0 mi ESE 5.8 mph - N/A   Overcast
6:15 PM 68.7 °F 56.8 °F 66% 30.06 in 10.0 mi SE 4.6 mph - N/A   Scattered Clouds
6:35 PM 68.0 °F 56.8 °F 67% 30.06 in 10.0 mi ESE 9.2 mph - N/A   Scattered Clouds
6:55 PM 66.2 °F 56.3 °F 70% 30.05 in 10.0 mi ESE 9.2 mph - N/A   Clear
7:15 PM 66.4 °F 56.3 °F 70% 30.05 in 10.0 mi SE 9.2 mph - N/A   Clear
7:35 PM 65.7 °F 56.3 °F 72% 30.05 in 10.0 mi ESE 11.5 mph - N/A   Clear
7:55 PM 64.8 °F 56.1 °F 74% 30.06 in 10.0 mi ESE 9.2 mph - N/A   Mostly Cloudy
8:15 PM 64.6 °F 56.5 °F 75% 30.07 in 10.0 mi ESE 11.5 mph - N/A   Overcast
8:35 PM 63.5 °F 56.5 °F 78% 30.06 in 10.0 mi ESE 10.4 mph - N/A   Mostly Cloudy
8:55 PM 62.6 °F 56.3 °F 80% 30.07 in 10.0 mi ESE 3.5 mph - N/A   Mostly Cloudy
9:15 PM 61.3 °F 56.3 °F 83% 30.07 in 10.0 mi Calm Calm - N/A   Scattered Clouds
9:35 PM 61.3 °F 56.8 °F 85% 30.07 in 10.0 mi ESE 10.4 mph - N/A   Clear
9:55 PM 60.6 °F 57.4 °F 89% 30.07 in 10.0 mi SE 6.9 mph - N/A   Clear
10:15 PM 60.1 °F 57.4 °F 91% 30.07 in 10.0 mi SE 5.8 mph - N/A   Clear
10:35 PM 59.7 °F 57.2 °F 91% 30.08 in 10.0 mi Calm Calm - N/A   Clear
11:15 PM 59.0 °F 56.8 °F 93% 30.08 in 10.0 mi Calm Calm - N/A   Clear
11:35 PM 58.3 °F 56.5 °F 94% 30.09 in 10.0 mi Calm Calm - N/A   Clear
11:55 PM 57.4 °F 56.1 °F 96% 30.08 in 10.0 mi Calm Calm - N/A   Clear